This is the latest recevied weather packets stored in our database for station/object KC5TIL-3. If no packets are shown the sender has not sent any weather packets the latest 10 day(s).
| Time | Temp. | Humidity | Pressure | Rain* | Wind** | Luminosity | Snow |
|---|---|---|---|---|---|---|---|
| 1777796916 | 15.56° C | 33% | 1016.8 hPa | 0 mm | 2.68 m/s, 157° | - | - |
| 1777796615 | 15.56° C | 32% | 1016.8 hPa | 0 mm | 3.58 m/s, 182° | - | - |
| 1777796317 | 15.56° C | 32% | 1017.8 hPa | 0 mm | 3.58 m/s, 209° | - | - |
| 1777796014 | 15.56° C | 32% | 1017.8 hPa | 0 mm | 3.13 m/s, 232° | - | - |
| 1777795713 | 15.56° C | 32% | 1017.8 hPa | 0 mm | 3.13 m/s, 224° | - | - |
| 1777795415 | 15.56° C | 32% | 1017.8 hPa | 0 mm | 3.13 m/s, 189° | - | - |
| 1777795116 | 15.56° C | 32% | 1017.8 hPa | 0 mm | 3.13 m/s, 160° | - | - |
| 1777794815 | 15.56° C | 32% | 1017.8 hPa | 0 mm | 2.68 m/s, 189° | - | - |
| 1777794219 | 15.56° C | 31% | 1017.8 hPa | 0 mm | 3.58 m/s, 217° | - | - |
| 1777793917 | 16.11° C | 30% | 1017.8 hPa | 0 mm | 3.13 m/s, 195° | - | - |
| 1777793619 | 16.11° C | 30% | 1017.8 hPa | 0 mm | 2.68 m/s, 164° | - | - |
| 1777793312 | 16.11° C | 30% | 1017.8 hPa | 0 mm | 3.13 m/s, 201° | - | - |
| 1777793006 | 16.11° C | 30% | 1017.8 hPa | 0 mm | 2.24 m/s, 198° | - | - |
| 1777792708 | 16.11° C | 30% | 1017.8 hPa | 0 mm | 3.13 m/s, 194° | - | - |
| 1777792409 | 16.11° C | 31% | 1017.8 hPa | 0 mm | 3.13 m/s, 222° | - | - |
| 1777792108 | 15.56° C | 32% | 1017.8 hPa | 0 mm | 4.02 m/s, 216° | - | - |
| 1777791801 | 16.11° C | 32% | 1017.8 hPa | 0 mm | 3.13 m/s, 198° | - | - |
| 1777791502 | 16.11° C | 32% | 1017.8 hPa | 0 mm | 3.58 m/s, 167° | - | - |
| 1777791201 | 16.11° C | 31% | 1017.8 hPa | 0 mm | 2.68 m/s, 172° | - | - |
| 1777790903 | 16.11° C | 31% | 1017.8 hPa | 0 mm | 3.13 m/s, 197° | - | - |
| 1777790605 | 16.11° C | 30% | 1017.8 hPa | 0 mm | 3.13 m/s, 214° | - | - |
| 1777790303 | 16.67° C | 29% | 1017.8 hPa | 0 mm | 3.13 m/s, 168° | - | - |
| 1777790000 | 16.67° C | 29% | 1017.8 hPa | 0 mm | 3.13 m/s, 221° | - | - |
| 1777789702 | 16.67° C | 29% | 1017.8 hPa | 0 mm | 3.13 m/s, 188° | - | - |
| 1777789401 | 16.67° C | 30% | 1017.8 hPa | 0 mm | 3.13 m/s, 175° | - | - |
* Rain latest hour (hover to see other rain measurements)
** Current wind speed in m/s (hover to see current wind gust speed)